Weather History for Winter Haven, FL

Change the Weather History Date:

Monday, November 12, 2012

  Actual Average Record
Temperature  
Mean Temperature 72 °F -  
Max Temperature 82 °F 78 °F 90 °F (1986)
Min Temperature 61 °F 56 °F 39 °F (1962)
Cooling Degree Days 6    
Growing Degree Days 22 (Base 50)    
Moisture  
Dew Point 62 °F    
Average Humidity 76    
Maximum Humidity 97    
Minimum Humidity 46    
Precipitation  
Precipitation 0.00 in - - ()
Sea Level Pressure  
Sea Level Pressure 30.21 in    
Wind  
Wind Speed 5 mph (ENE)    
Max Wind Speed 13 mph    
Max Gust Speed 18 mph    
Visibility 10 miles    
Events      
Averages and records for this station are not official NWS values.
T = Trace of Precipitation, MM = Missing Value Source: NWS Daily Summary

Daily Weather History Graph

Daily Weather History Graph

Search for Another Location

Airport:

Trip Planner

Search our weather history database for the weather conditions in past years. The results will help you decide how hot, cold, wet, or windy it might be!

Date:

Astronomy

Nov. 12, 2012 Rise Set
Actual Time 6:46 AM EST 5:35 PM EST
Civil Twilight 6:22 AM EST 6:00 PM EST
Nautical Twilight 5:53 AM EST 6:28 PM EST
Astronomical Twilight 5:25 AM EST 6:56 PM EST
Moon 5:15 AM EST (11/12) 4:37 PM EST (11/12)
Length of Visible Light 11h 38m
Length of Day
10h 48m
Waning Crescent, 2% of the Moon is Illuminated
Nov 12
Waning Crescent
Nov 13
New
Nov 20
First Quarter
Nov 28
Full
Dec 6
Last Quarter

Hourly Weather History & Observations

Time (EST) Temp. Heat Index Dew Point Humidity Pressure Visibility Wind Dir Wind Speed Gust Speed Precip Events Conditions
12:53 AM 62.1 °F - 60.1 °F 93% 30.24 in 10.0 mi ENE 4.6 mph - N/A   Clear
1:53 AM 62.1 °F - 61.0 °F 96% 30.23 in 10.0 mi Calm Calm - N/A   Clear
2:53 AM 62.1 °F - 60.1 °F 93% 30.22 in 10.0 mi NNE 3.5 mph - N/A   Mostly Cloudy
3:53 AM 62.1 °F - 60.1 °F 93% 30.22 in 9.0 mi Calm Calm - N/A   Overcast
4:53 AM 62.1 °F - 61.0 °F 96% 30.22 in 8.0 mi North 3.5 mph - N/A   Mostly Cloudy
5:53 AM 61.0 °F - 59.0 °F 93% 30.22 in 7.0 mi ENE 4.6 mph - N/A   Scattered Clouds
6:53 AM 61.0 °F - 60.1 °F 97% 30.23 in 5.0 mi NNE 3.5 mph - N/A   Partly Cloudy
7:53 AM 64.9 °F - 62.1 °F 90% 30.25 in 9.0 mi North 3.5 mph - N/A   Clear
8:53 AM 71.1 °F - 64.0 °F 78% 30.26 in 10.0 mi East 5.8 mph - N/A   Clear
9:53 AM 75.9 °F - 64.9 °F 69% 30.27 in 10.0 mi East 9.2 mph - N/A   Clear
10:53 AM 80.1 °F 81.5 °F 63.0 °F 56% 30.25 in 10.0 mi East 12.7 mph - N/A   Scattered Clouds
11:53 AM 80.1 °F 81.2 °F 62.1 °F 54% 30.24 in 10.0 mi East 9.2 mph - N/A   Scattered Clouds
12:53 PM 78.1 °F - 61.0 °F 56% 30.21 in 10.0 mi East 9.2 mph 18.4 mph N/A   Clear
1:53 PM 82.9 °F 83.2 °F 60.1 °F 46% 30.18 in 10.0 mi East 12.7 mph - N/A   Clear
2:53 PM 81.0 °F 81.7 °F 61.0 °F 50% 30.17 in 10.0 mi ENE 11.5 mph - N/A   Partly Cloudy
3:53 PM 80.1 °F 81.2 °F 62.1 °F 54% 30.17 in 10.0 mi ENE 10.4 mph - N/A   Partly Cloudy
4:53 PM 78.1 °F - 62.1 °F 58% 30.17 in 10.0 mi ENE 8.1 mph - N/A   Mostly Cloudy
5:53 PM 73.9 °F - 62.1 °F 66% 30.18 in 10.0 mi ENE 6.9 mph - N/A   Clear
6:53 PM 71.1 °F - 62.1 °F 73% 30.19 in 10.0 mi ENE 5.8 mph - N/A   Clear
7:53 PM 69.1 °F - 62.1 °F 78% 30.20 in 10.0 mi East 4.6 mph - N/A   Clear
8:53 PM 68.0 °F - 62.1 °F 81% 30.20 in 10.0 mi ENE 4.6 mph - N/A   Clear
9:53 PM 66.9 °F - 62.1 °F 84% 30.21 in 10.0 mi Calm Calm - N/A   Clear
10:53 PM 66.0 °F - 62.1 °F 87% 30.20 in 10.0 mi Calm Calm - N/A   Clear
11:53 PM 64.9 °F - 62.1 °F 90% 30.19 in 10.0 mi Calm Calm - N/A   Clear